sat.trackr.live / text

‹ back to catalog

ONEWEB-0380

NORAD 49306 · 2021-090AD

PAYLOAD ACTIVE UNKNOWN

§ Identity

Operator
Country
UK
Launch date
2021-10-14
Launch site
VOSTO
Launch vehicle
Mass (kg)
RCS (m²)

Purposes: comms

External: N2YO · Heavens-Above · Gunter

§ Orbital elements

Epoch: 2026-09-03T13:54:45.881280Z

Period
109.11 min
Inclination
87.9127°
Eccentricity
0.0001831
Mean motion
13.19725213 rev/d
Perigee alt
1,184.4 km
Apogee alt
1,187.2 km
Semi-major
7,563.9 km
B*
-1.9621e-4
RAAN
289.3577°
Arg perigee
98.9408°
Mean anomaly
261.1932°
Rev number
23,676

§ Raw data

ONEWEB-03801 49306U 21090AD  26246.57969770 -.00000066  00000+0 -19621-3 0  99992 49306  87.9127 289.3577 0001831  98.9408 261.1932 13.19725213236762

JSON: /api/v1/satellites/49306 · /tle

For live sub-satellite position, see the globe view (requires WebGL).

§ Visibility from observer

Set your observer location to see the next 7 days of passes ≥ 10°. The values pass through the URL so the page stays shareable.

No JS? Fill the form by hand. The geolocation button needs JavaScript.